Showing default

QPS-SAR-8 AMATERU-IV, 60542

Orbit data source: Space-Track

QPS-SAR-8 AMATERU-IV, 60542 is a payload satellite owned by QPS Labs (JP) in SSO that was launched on Fri, 16 Aug 2024 UTC via an FALCON 9 launch vehicle from the Air Force Western Test Range (AFWTR). Payload-class satellites include a variety of spacecraft equipped with specific instruments for various scientific and technological missions. These include communications satellites like Starlink; space stations such as the ISS; scientific satellites like the Hubble; Earth observation satellites from companies like Planet Labs, Umbra, and HawkEye 360; GPS; miniature CubeSats for education and research; and military/defense satellites.

Loading next visibility...
Identifier
60542, 2024-149CC
Orbit
SSO
Country
Flag of JPJP / JPN
Related business
Manufacturer
QPS Labs
Mission
Operational Commercial Radar Imaging
Bus & Motor
QSAT, Unknown motor
Mass
~120 kg wet, ~100 kg dry
Launch date (UTC)
2024-08-16 (1 year ago)
Launch vehicle
FALCON 9
Launch site
Air Force Western Test Range (AFWTR)
Object type
Payload
Rocket body
Debris
Shape & HBR
Hex Cyl + 2 Pan + 1 Dish, 1.8 m
Radar Cross Section
1.179 m², Large (>1 m²)

Expand to show TLE details & history
Last TLE update: 17 hours ago

TLE from 17 hours ago
0 QPS-SAR-8 AMATERU-IV
1 60542U 24149CC  26034.47942136  .00007328  00000-0  55552-3 0  9993
2 60542  97.6797 114.8528 0003770 171.3769 188.7521 15.02539859 80180
Epoch: 2026-02-03T11:30Z
TLE epoch observation values (Epoch: 2026-02-03T11:30:22.005Z)
Latitude
-0.00005°
Longitude
168.60136°
Altitude
564.712 km
Speed
7.577 km/s
True Right ascension
07h 39m 24s
True Declination
0° 00' 00"
Sunlit
Object was in full shadow at epoch
Visualization orbit readout
Latitude
Unknown
Longitude
Unknown
Altitude
Unknown
Speed
Unknown
Apparent Right ascension
Unknown
Apparent Declination
Unknown
Sunlit
N/A
Visualization observer readout
Local Sidereal Time
05:57:25
Azimuth
Unknown
Elevation
Unknown
Doppler factor
Unknown
Orbital elements
Apogee altitude
558.683 km
Perigee altitude
553.454 km
Semi-major axis
6,934.206 km
Eccentricity
0.00038
Inclination
97.6797°
RAAN
114.8528°
Arg. of periapsis
171.3769°
True anomaly
188.74553°
Mean anomaly
188.7521°
Eccentric anomaly
188.74881°
Mean motion
3.75879 °/min
Orbital period
95.78 mins
BSTAR
0.00055552
Loading maneuver chart data...
Computing Atmospheric mass density...
Loading historical data...
Loading historical data...
Loading historical data...
Loading historical data...
Loading historical data...
Loading historical data...
Loading historical data...

Documentation

Showing up to 5 results
|